sat.trackr.live / text

‹ back to catalog

SEDNA-2

NORAD 63153 · 2025-009DQ

PAYLOAD ACTIVE UNKNOWN

§ Identity

Operator
Country
US
Launch date
2025-01-14
Launch site
AFWTR
Launch vehicle
Mass (kg)
RCS (m²)

External: N2YO · Heavens-Above · Gunter

§ Orbital elements

Epoch: 2026-09-22T16:51:43.242048Z

Period
95.18 min
Inclination
97.4461°
Eccentricity
0.0010293
Mean motion
15.12988980 rev/d
Perigee alt
520.0 km
Apogee alt
534.2 km
Semi-major
6,905.2 km
B*
2.3549e-4
RAAN
336.9356°
Arg perigee
87.9854°
Mean anomaly
272.2555°
Rev number
9,286

§ Raw data

SEDNA-21 63153U 25009DQ  26265.70258382  .00004096  00000+0  23549-3 0  99942 63153  97.4461 336.9356 0010293  87.9854 272.2555 15.12988980 92866

JSON: /api/v1/satellites/63153 · /tle

For live sub-satellite position, see the globe view (requires WebGL).

§ Visibility from observer

Set your observer location to see the next 7 days of passes ≥ 10°. The values pass through the URL so the page stays shareable.

No JS? Fill the form by hand. The geolocation button needs JavaScript.